Provincetown, MA

9:03 AM EDT on August 23, 2017 (GMT -0400)
Provincetown Municipal

Weather History for KPVC - March, 2013

Change the Weather History Date:

Monday, March 25, 2013

  Actual Average Record
Temperature  
Mean Temperature 38 °F -  
Max Temperature 46 °F 44 °F 62 °F (1952)
Min Temperature 30 °F 33 °F 23 °F (2014)
Degree Days  
Heating Degree Days 27    
Moisture  
Dew Point 31 °F    
Average Humidity 75    
Maximum Humidity 100    
Minimum Humidity 49    
Precipitation  
Precipitation 0.00 in - - ()
Sea Level Pressure  
Sea Level Pressure 29.63 in    
Wind  
Wind Speed 10 mph (NE)    
Max Wind Speed 23 mph    
Max Gust Speed 31 mph    
Visibility 10 miles    
Events      
Averages and records for this station are not official NWS values.
T = Trace of Precipitation, MM = Missing Value Source: NWS Daily Summary

Daily Weather History Graph

Daily Weather History Graph

Search for Another Location

Airport or City:

Trip Planner

Search our weather history database for the weather conditions in past years. The results will help you decide how hot, cold, wet, or windy it might be!

Date:

Astronomy

Mar. 25, 2013 Rise Set
Actual Time 6:35 AM EDT 6:58 PM EDT
Civil Twilight 6:07 AM EDT 7:26 PM EDT
Nautical Twilight 5:34 AM EDT 7:59 PM EDT
Astronomical Twilight 5:00 AM EDT 8:33 PM EDT
Moon 5:25 PM EDT (3/25) 5:18 AM EDT (3/25)
Length of Visible Light 13h 19m
Length of Day
12h 23m
Waxing Gibbous, 96% of the Moon is Illuminated
Mar 25
Waxing Gibbous
Mar 27
Full
Apr 3
Last Quarter
Apr 10
New
Apr 18
First Quarter

Hourly Weather History & Observations

Time (EDT) Temp. Windchill Dew Point Humidity Pressure Visibility Wind Dir Wind Speed Gust Speed Precip Events Conditions
12:15 AM 30.2 °F - 30.2 °F 100% 29.77 in 10.0 mi Calm Calm - N/A   Clear
12:35 AM 30.2 °F - 28.4 °F 93% 29.77 in 10.0 mi Calm Calm - N/A   Clear
12:55 AM 30.2 °F - 30.2 °F 100% 29.77 in 10.0 mi Calm Calm - N/A   Clear
1:15 AM 30.2 °F 26.7 °F 28.4 °F 93% 29.76 in 10.0 mi West 3.5 mph - N/A   Clear
1:35 AM 35.6 °F 30.7 °F 33.8 °F 93% 29.76 in 10.0 mi West 5.8 mph - N/A   Clear
1:55 AM 35.6 °F 30.7 °F 33.8 °F 93% 29.75 in 10.0 mi West 5.8 mph - N/A   Clear
2:15 AM 37.4 °F 32.1 °F 32.0 °F 81% 29.75 in 10.0 mi West 6.9 mph - N/A   Clear
2:35 AM 37.4 °F 32.1 °F 32.0 °F 81% 29.75 in 10.0 mi WNW 6.9 mph - N/A   Clear
2:55 AM 35.6 °F 30.7 °F 33.8 °F 93% 29.75 in 10.0 mi WNW 5.8 mph - N/A   Clear
3:15 AM 37.4 °F 32.8 °F 32.0 °F 81% 29.75 in 10.0 mi WNW 5.8 mph - N/A   Clear
3:35 AM 37.4 °F 33.8 °F 33.8 °F 87% 29.74 in 10.0 mi NW 4.6 mph - N/A   Clear
3:55 AM 37.4 °F 34.9 °F 33.8 °F 87% 29.73 in 10.0 mi NNW 3.5 mph - N/A   Clear
4:15 AM 37.4 °F 33.8 °F 35.6 °F 93% 29.72 in 10.0 mi NNW 4.6 mph - N/A   Clear
4:35 AM 37.4 °F 34.9 °F 35.6 °F 93% 29.72 in 10.0 mi North 3.5 mph - N/A   Clear
4:55 AM 33.8 °F 30.8 °F 30.2 °F 87% 29.71 in 10.0 mi NNE 3.5 mph - N/A   Clear
5:15 AM 37.4 °F 30.8 °F 33.8 °F 87% 29.71 in 10.0 mi NE 9.2 mph - N/A   Clear
5:55 AM 37.4 °F 31.4 °F 33.8 °F 87% 29.70 in 10.0 mi ENE 8.1 mph - N/A   Clear
6:15 AM 39.2 °F 32.5 °F 33.8 °F 81% 29.69 in 10.0 mi ENE 10.4 mph - N/A   Clear
6:35 AM 39.2 °F 33.0 °F 33.8 °F 81% 29.70 in 10.0 mi ENE 9.2 mph - N/A   Clear
6:55 AM 39.2 °F 33.0 °F 33.8 °F 81% 29.69 in 10.0 mi ENE 9.2 mph - N/A   Clear
7:15 AM 39.2 °F 32.5 °F 33.8 °F 81% 29.70 in 10.0 mi ENE 10.4 mph - N/A   Clear
7:35 AM 39.2 °F 32.5 °F 35.6 °F 87% 29.70 in 10.0 mi ENE 10.4 mph - N/A   Clear
8:15 AM 39.2 °F 33.0 °F 33.8 °F 81% 29.70 in 10.0 mi ENE 9.2 mph - N/A   Clear
8:35 AM 41.0 °F 35.2 °F 35.6 °F 81% 29.70 in 10.0 mi ENE 9.2 mph - N/A   Clear
8:55 AM 42.8 °F 38.0 °F 33.8 °F 70% 29.70 in 10.0 mi ENE 8.1 mph - N/A   Clear
9:15 AM 42.8 °F 36.6 °F 33.8 °F 70% 29.70 in 10.0 mi ENE 11.5 mph - N/A   Clear
9:35 AM 42.8 °F 35.8 °F 33.8 °F 70% 29.70 in 10.0 mi East 13.8 mph - N/A   Clear
9:55 AM 44.6 °F 38.4 °F 33.8 °F 66% 29.68 in 10.0 mi ENE 12.7 mph 20.7 mph N/A   Clear
10:35 AM 42.8 °F 35.1 °F 28.4 °F 57% 29.67 in 10.0 mi East 16.1 mph - N/A   Clear
10:55 AM 44.6 °F 37.4 °F 28.4 °F 53% 29.67 in 10.0 mi East 16.1 mph 24.2 mph N/A   Clear
11:15 AM 44.6 °F 38.1 °F 28.4 °F 53% 29.66 in 10.0 mi ENE 13.8 mph 20.7 mph N/A   Clear
11:35 AM 44.6 °F 37.2 °F 28.4 °F 53% 29.66 in 10.0 mi East 17.3 mph 23.0 mph N/A   Clear
11:55 AM 44.6 °F 36.6 °F 26.6 °F 49% 29.66 in 10.0 mi East 19.6 mph - N/A   Clear
12:15 PM 44.6 °F 36.6 °F 28.4 °F 53% 29.66 in 10.0 mi East 19.6 mph 25.3 mph N/A   Clear
12:35 PM 46.4 °F 39.8 °F 28.4 °F 50% 29.64 in 10.0 mi ENE 16.1 mph 25.3 mph N/A   Clear
12:55 PM 46.4 °F 38.5 °F 30.2 °F 53% 29.64 in 10.0 mi East 21.9 mph 27.6 mph N/A   Clear
1:35 PM 46.4 °F 38.7 °F 28.4 °F 50% 29.62 in 10.0 mi East 20.7 mph 27.6 mph N/A   Clear
1:55 PM 44.6 °F 35.9 °F 28.4 °F 53% 29.62 in 10.0 mi East 23.0 mph 27.6 mph N/A   Clear
2:15 PM 42.8 °F 34.0 °F 28.4 °F 57% 29.61 in 10.0 mi East 20.7 mph 26.5 mph N/A   Clear
2:35 PM 42.8 °F 35.1 °F 26.6 °F 53% 29.60 in 10.0 mi East 16.1 mph 27.6 mph N/A   Clear
2:55 PM 42.8 °F 35.1 °F 28.4 °F 57% 29.59 in 10.0 mi ENE 16.1 mph 23.0 mph N/A   Clear
3:15 PM 42.8 °F 34.5 °F 30.2 °F 61% 29.56 in 10.0 mi ENE 18.4 mph 24.2 mph N/A   Clear
3:35 PM 42.8 °F 34.5 °F 28.4 °F 57% 29.53 in 10.0 mi ENE 18.4 mph 25.3 mph N/A   Clear
4:15 PM 41.0 °F 32.2 °F 28.4 °F 61% 29.53 in 10.0 mi ENE 18.4 mph 27.6 mph N/A   Mostly Cloudy
4:35 PM 41.0 °F 32.8 °F 28.4 °F 61% 29.52 in 10.0 mi ENE 16.1 mph 24.2 mph N/A   Mostly Cloudy
4:55 PM 39.2 °F 30.2 °F 30.2 °F 70% 29.52 in 10.0 mi ENE 17.3 mph 25.3 mph N/A   Overcast
5:15 PM 39.2 °F 29.6 °F 30.2 °F 70% 29.52 in 10.0 mi ENE 19.6 mph 25.3 mph N/A   Mostly Cloudy
5:35 PM 39.2 °F 30.5 °F 30.2 °F 70% 29.51 in 10.0 mi ENE 16.1 mph 26.5 mph N/A   Mostly Cloudy
5:55 PM 39.2 °F 29.8 °F 30.2 °F 70% 29.51 in 10.0 mi ENE 18.4 mph 25.3 mph N/A   Mostly Cloudy
6:15 PM 37.4 °F 26.6 °F 32.0 °F 81% 29.52 in 5.0 mi NE 21.9 mph 31.1 mph N/A   Overcast
6:35 PM 37.4 °F 27.8 °F 33.8 °F 87% 29.51 in 10.0 mi ENE 17.3 mph 20.7 mph N/A   Overcast
6:55 PM 37.4 °F 27.5 °F 33.8 °F 87% 29.52 in 9.0 mi ENE 18.4 mph 28.8 mph N/A   Overcast
7:15 PM 37.4 °F 27.5 °F 33.8 °F 87% 29.51 in 10.0 mi NE 18.4 mph 27.6 mph N/A   Overcast
7:35 PM 37.4 °F 27.8 °F 35.6 °F 93% 29.51 in 10.0 mi NE 17.3 mph 25.3 mph N/A   Mostly Cloudy
7:55 PM 37.4 °F 27.5 °F 33.8 °F 87% 29.51 in 10.0 mi ENE 18.4 mph 25.3 mph N/A   Overcast
8:15 PM 37.4 °F 26.6 °F 32.0 °F 81% 29.52 in 10.0 mi ENE 21.9 mph 29.9 mph N/A   Overcast
8:35 PM 37.4 °F 26.4 °F 32.0 °F 81% 29.52 in 10.0 mi ENE 23.0 mph 29.9 mph N/A   Overcast
9:15 PM 39.2 °F 29.6 °F 32.0 °F 75% 29.52 in 10.0 mi ENE 19.6 mph 28.8 mph N/A   Overcast
9:35 PM 39.2 °F 30.2 °F 30.2 °F 70% 29.51 in 10.0 mi ENE 17.3 mph 28.8 mph N/A   Overcast
9:55 PM 39.2 °F 29.8 °F 32.0 °F 75% 29.51 in 10.0 mi ENE 18.4 mph 26.5 mph N/A   Overcast
10:15 PM 39.2 °F 29.6 °F 32.0 °F 75% 29.51 in 10.0 mi NE 19.6 mph 28.8 mph N/A   Overcast
10:35 PM 39.2 °F 29.0 °F 30.2 °F 70% 29.50 in 10.0 mi ENE 21.9 mph 28.8 mph N/A   Overcast
10:55 PM 39.2 °F 28.7 °F 30.2 °F 70% 29.50 in 10.0 mi NE 23.0 mph 29.9 mph N/A   Overcast
11:15 PM 39.2 °F 29.3 °F 30.2 °F 70% 29.49 in 10.0 mi NE 20.7 mph 29.9 mph N/A   Overcast
11:35 PM 39.2 °F 28.7 °F 30.2 °F 70% 29.49 in 10.0 mi NE 23.0 mph 29.9 mph N/A   Overcast
11:55 PM 39.2 °F 28.7 °F 32.0 °F 75% 29.48 in 10.0 mi NE 23.0 mph 29.9 mph N/A   Overcast